User: anonymous   Login
Location: Mercogliano
(40.9167°N, 14.7333°E)
Time: 05:17:00
(UTC+00:00)
Language:

Cosmos 1092 Rocket - Orbit

View from above orbital plane
View from above orbital plane
View from above satellite
View from above satellite

Ground track
Ground track

The orbit data is extracted from the following two-line orbital elements,

1 11327U 79030B   20333.58319346 +.00000019 +00000-0 +41097-5 0  9999
2 11327 082.9511 080.0450 0026553 250.2304 120.6539 13.76947079092376
Epoch (UTC): 28 November 2020 13:59:47
Eccentricity: 0.0026553
inclination: 82.9511°
perigee height: 955 km
apogee height: 994 km
right ascension of ascending node: 80.0450°
argument of perigee: 250.2304°
revolutions per day: 13.76947079
mean anomaly at epoch: 120.6539°
orbit number at epoch: 9237

The dashed part of the orbit path shows where the satellite is in the earth's shadow,  

DLR